This demonstration page uses our WeatherBlox Daily Observations layout. Learn more.

Left ArrowRight Arrow

Hourly Observations for March 30, 2020

Temp ( °F °C ) Dew Point ( °F °C ) Humidity (%) Winds ( mph kmh ) Pressure ( in mb ) Visibility ( mi km ) Precip ( " mm )
12:54 am 00:54 Clear 34 1.1 29 -1.7 82 82 Calm 30.17 1022 10 16.0934 0 0
1:54 am 01:54 Clear 36 2.2 31 -0.6 82 82 SW 3 6 30.18 1022 10 16.0934 0 0
2:54 am 02:54 Clear 31 -0.6 27 -2.8 85 85 N 5 7 30.18 1022 10 16.0934 0 0
3:54 am 03:54 Clear 33 0.6 29 -1.7 85 85 NNW 6 9 30.18 1022 10 16.0934 0 0
4:54 am 04:54 Cloudy 34 1.1 30 -1.1 85 85 N 5 7 30.19 1023 10 16.0934 0 0
5:54 am 05:54 Cloudy 33 0.6 29 -1.7 85 85 NNW 5 7 30.21 1023 10 16.0934 0 0
6:54 am 06:54 Clear 32 0 28 -2.2 85 85 N 3 6 30.21 1023 10 16.0934 0 0
7:54 am 07:54 Sunny 34 1.1 30 -1.1 85 85 N 5 7 30.23 1024 10 16.0934 0 0
8:54 am 08:54 Sunny 46 7.8 34 1.1 63 63 ESE 5 7 30.22 1023 10 16.0934 0 0
9:54 am 09:54 Sunny 54 12.2 32 0 43 43 ESE 9 15 30.2 1023 10 16.0934 0 0
10:54 am 10:54 Sunny 60 15.6 33 0.6 36 36 ESE 10 17 30.19 1022 10 16.0934 0 0
11:54 am 11:54 Sunny 63 17.2 32 0 31 31 E 8 13 30.16 1022 10 16.0934 0 0
12:54 pm 12:54 Sunny 67 19.4 34 1.1 30 30 E 12 19 30.13 1020 10 16.0934 0 0
1:54 pm 13:54 Sunny 70 21.1 32 0 25 25 ESE 16 26 30.1 1019 10 16.0934 0 0
2:54 pm 14:54 Sunny 71 21.7 31 -0.6 23 23 ESE 14 22 30.07 1018 10 16.0934 0 0
3:54 pm 15:54 Mostly Cloudy 69 20.6 30 -1.1 23 23 ESE 14 22 30.05 1018 10 16.0934 0 0
4:54 pm 16:54 Mostly Cloudy 69 20.6 31 -0.6 24 24 SE 14 22 30.04 1017 10 16.0934 0 0
5:54 pm 17:54 Mostly Cloudy 68 20 31 -0.6 25 25 ESE 14 22 30.03 1017 10 16.0934 0 0
6:54 pm 18:54 Mostly Sunny 66 18.9 32 0 28 28 ESE 12 19 30.03 1017 10 16.0934 0 0
7:54 pm 19:54 Partly Cloudy 64 17.8 31 -0.6 29 29 ESE 12 19 30.04 1017 10 16.0934 0 0
8:54 pm 20:54 Mostly Cloudy 62 16.7 32 0 32 32 E 8 13 30.05 1018 10 16.0934 0 0
9:54 pm 21:54 Cloudy 61 16.1 33 0.6 35 35 ESE 14 22 30.06 1018 10 16.0934 0 0
10:54 pm 22:54 Cloudy 59 15 33 0.6 38 38 ESE 10 17 30.06 1018 10 16.0934 0 0
11:54 pm 23:54 Cloudy 57 13.9 33 0.6 41 41 E 5 7 30.07 1018 10 16.0934 0 0

Powered by AerisWeather